RADUGA 4 [-]

Last updated on Jan. 23, 2021, 7:21 a.m. UTC

1 10987U 78073A   21022.79594765 -.00000257  00000-0  00000-0 0  9994
2 10987   9.6340 302.9729 0010692 351.3541 209.4811  1.00336362 99839
UTC
Height (km)
Latitude
Longitude
Inclination
Orbital Period
UTC large
Height (km)
Speed (km/s)
/
Latitude / Longitude
Inclination (degrees)
Orbital Period (minutes)
Azimuth
Elevation
Range (km)
Doppler Factor
iOS Compass Heading
iOS Angle

Next 30 passes for location: Hong Kong

Rise time Rise Azimuth (degrees) Set time Set Azimuth (degrees) Duration Max altitude (degrees)

No matching passes for this satellites